Regional Weather Roundup
Issued by NWS San Diego, CA

Current Version | Previous Version | Text Only | Print | Product List | Glossary On
Versions: 1 2 3 4 5 6 7 8 9 10 11 12 13 14 15 16 17 18 19 20 21 22 23 24 25 26 27 28 29 30 31 32 33 34 35 36 37 38 39 40 41 42 43 44 45 46 47 48 49 50
000
ASUS46 KSGX 212311
RWRSGX

SAN DIEGO HOURLY WEATHER ROUNDUP
NATIONAL WEATHER SERVICE SAN DIEGO CA
400 PM PDT SAT OCT 21 2017

NOTE: "FAIR" INDICATES FEW OR NO CLOUDS BELOW 12,000 FEET WITH NO
SIGNIFICANT WEATHER AND/OR OBSTRUCTIONS TO VISIBILITY.

CAZ042-043-060-061-PZZ750-775-220000-

GREATER SAN DIEGO AREA

CITY           SKY/WX    TMP DP  RH WIND       PRES   REMARKS
SAN DIEGO AP   SUNNY     73  56  54 NW13      30.00S
NATIONAL CITY    N/A     76  60  56 NW7       30.00S
IMPERIAL BEACH SUNNY     71  57  61 W16       29.99S
BROWN FIELD    SUNNY     74  57  55 W10       29.99R
MIRAMAR MCAS   MOSUNNY   78  57  48 NW12      29.99S
MONTGOMERY FLD SUNNY     77  55  46 NW14      29.99S
GILLESPIE FLD  SUNNY     79  54  41 NW10      29.98S

$$

NORTH SAN DIEGO COUNTY

CITY           SKY/WX    TMP DP  RH WIND       PRES   REMARKS
CAMP PENDLETON SUNNY     74  58  57 SW6       29.98S
OCEANSIDE AP   SUNNY     72  60  66 NW12G18   29.98F
OCEANSIDE HBR    N/A     70  61  74 W12       30.01F
VISTA            N/A     73  60  61 W3        29.97S
CARLSBAD       SUNNY     70  59  68 NW6       29.99S
DEL MAR          N/A     70  61  73 CALM      30.02S
LA JOLLA SCRIP   N/A     69  61  76 NW12      30.00S
ESCONDIDO        N/A     76  58  53 W8        30.00S
SAN MARCOS       N/A     76  59  56 NW6       30.02R
POWAY            N/A     78  57  48 CALM      30.00S

$$

EAST SAN DIEGO COUNTY

CITY           SKY/WX    TMP DP  RH WIND       PRES   REMARKS
RAMONA         SUNNY     79  51  37 NW13      30.01S
SANTEE LAKES     N/A     78  57  48 NW5       29.97R
LA MESA          N/A     76  57  51 NW5       29.91S
JAMUL            N/A     79  52  38 CALM      29.99R
CAMPO            N/A     73  24  16 NE22G30   30.03R

$$

ORANGE COUNTY AND THE LOS ANGELES BASIN

CITY           SKY/WX    TMP DP  RH WIND       PRES   REMARKS
JOHN WAYNE AP  MOSUNNY   72  58  61 SW9       30.01R
LAGUNA BEACH     N/A     72  63  73 SW8       29.96S
LAKE FOREST FR   N/A     75  55  50 W3        29.90R
HUNTINGTON BCH   N/A     71  60  67 W10       30.02S
LOS ALAMITOS   FAIR      81  51  35 W12       30.00S
FULLERTON      MOSUNNY   83  45  26 NW6       29.99S
LONG BEACH     SUNNY     76  48  37 W16       30.01R
L.A. AP        MOSUNNY   71  46  40 W14       30.03S
L.A. DOWNTOWN  SUNNY     74  43  32 W6        30.02R

$$

THE INLAND EMPIRE

CITY           SKY/WX    TMP DP  RH WIND       PRES   REMARKS
CORONA         SUNNY     82  44  26 W7        30.01
CHINO          MOSUNNY   82  43  25 NW9       30.02S
ONTARIO        MOSUNNY   81  35  19 W9        30.02S
SAN BERNARDINO SUNNY     84  27  12 S3        30.01F
RIVERSIDE AP   SUNNY     84  27  12 N8        30.01S
MARCH ARB      SUNNY     81  28  14 NW3       30.02S
FRENCH VALLEY  FAIR      82  28  14 N8        30.01S

$$

SAN BERNARDINO AND RIVERSIDE COUNTY MOUNTAINS

CITY           SKY/WX    TMP DP  RH WIND       PRES   REMARKS
BIG BEAR AP    SUNNY     55  12  18 E12       30.28R

$$

SOUTHERN DESERT INCLUDING THE COACHELLA VALLEY

CITY           SKY/WX    TMP DP  RH WIND       PRES   REMARKS
PALM SPRINGS   SUNNY     85  23  10 SW7       30.04S
THOUSAND PALMS   N/A     85  23  10 N1        30.00S
PALM DESERT      N/A     88  29  12 CALM      31.04S
THERMAL        SUNNY     87  23   9 W5        29.98S
BLYTHE         SUNNY     85  16   7 N16       30.00F
IMPERIAL AP    SUNNY     85  25  11 N8        29.99S
EL CENTRO NAS  SUNNY     85  22  10 N12       30.01S
YUMA AZ        SUNNY     86  20   9 N17       29.97S
MEXICALI       SUNNY     86  48  26 N14       29.99S

$$

UPPER DESERT

CITY           SKY/WX    TMP DP  RH WIND       PRES   REMARKS
VICTORVILLE AP SUNNY     70  18  13 CALM      30.17S
HESPERIA         N/A     73  24  16 N5        30.26F
PALMDALE       SUNNY     73  22  14 E15       30.16R
LANCASTER      SUNNY     71  23  16 E13       30.16R
EDWARDS AFB    MOSUNNY   73  21  14 E3        30.13S
DAGGETT        SUNNY     74  21  13 VRB5      30.13S
29 PALMS N     MOSUNNY   75  16  10 N13G20    30.18S
NEEDLES        SUNNY     81   5   5 N21G26    30.06S

$$

REGIONAL REPORTS

CITY           SKY/WX    TMP DP  RH WIND       PRES   REMARKS
SANTA BARBARA  SUNNY     69  52  54 S6        30.04S
SANDBERG       SUNNY     65  32  29 VRB6      30.22R
LAS VEGAS NV   MOSUNNY   72  13  10 E6        30.16R
PHOENIX AZ     MOSUNNY   84  43  23 W6        29.95S
TIJUANA        SUNNY     73  55  53 NW9       30.01
ENSENADA NW      N/A     70  32  24 CALM      29.96S

$$

OFFSHORE ISLANDS

CITY           SKY/WX    TMP DP  RH WIND       PRES   REMARKS
CATALINA ARPT  SUNNY     70  45  40 N8        30.07S
SAN NICOLAS IS SUNNY     67  43  41 NW18      30.05S

$$

MARINE AND OFFSHORE BUOY REPORTS

STATION/POSITION SKY/WX   TEMP    WIND        PRES    VSBY  SWELL
                          AIR SEA DIR/SP/G                  HT/PER/DIR
                          (F)     (DEG/KT/KT) (MB)    (MI)  (FT/S/D)
TANNER BANKS               63 64  340/ 14/ 17 1017.2S        13/320/15
S CLEMENTE BASIN           68 69  340/ 12/ 16 1016.1F         8/320/16
SAN NICOLAS IS.               62                N/A          10/310/17
SO. S. ROSA ISLA           60 60  320/ 19/ 25 1017.9S        10/300/14
W. S. BARBARA CH           59 56  310/ 23/ 29 1017.7F        10/290/15
M. S. BARBARA CH           63 63  240/  4/  6 1018.3F         7/280/15
S. MONICA BASIN               68  300/ 10/ 12 1016.8
S PEDRO CHANNEL               67                N/A           3/260/17
CMP PENDLETON NS              69                N/A           2/220/13
OCEANSIDE OFFSHR              70                N/A           2/220/13
TORREY PINES OTR              69                N/A           3/270/15
SAN DIEGO BAY                 73              1015.8S
POINT LOMA SOUTH              70                N/A           5/280/17

$$





USA.gov is the U.S. government's official web portal to all federal, state and local government web resources and services.